Port Huron, MI

9:01 AM EDT on May 26, 2018 (GMT -0400)
Saint Clair County International

Weather History for KPHN - March, 2013

Change the Weather History Date:

Saturday, March 23, 2013

  Actual Average (KMTC) Record (KMTC)
Temperature  
Mean Temperature 29 °F -  
Max Temperature 35 °F 46 °F 73 °F (1988)
Min Temperature 23 °F 27 °F 10 °F (1992)
Degree Days  
Heating Degree Days 36    
Moisture  
Dew Point 24 °F    
Average Humidity 80    
Maximum Humidity 100    
Minimum Humidity 65    
Precipitation  
Precipitation 0.00 in - - ()
Sea Level Pressure  
Sea Level Pressure 30.05 in    
Wind  
Wind Speed 2 mph (NW)    
Max Wind Speed 8 mph    
Max Gust Speed -    
Visibility 10 miles    
Events      
Averages and records for this station are not official NWS values.
T = Trace of Precipitation, MM = Missing Value Source: NWS Daily Summary

Daily Weather History Graph

Daily Weather History Graph

Search for Another Location

Airport or City:

Astronomy

Mar. 23, 2013 Rise Set
Actual Time 7:27 AM EDT 7:46 PM EDT
Civil Twilight 6:59 AM EDT 8:14 PM EDT
Nautical Twilight 6:26 AM EDT 8:47 PM EDT
Astronomical Twilight 5:51 AM EDT 9:22 PM EDT
Moon 4:07 PM EDT (3/23) 5:08 AM EDT (3/23)
Length of Visible Light 13h 15m
Length of Day
12h 18m
Waxing Gibbous, 85% of the Moon is Illuminated
Mar 23
Waxing Gibbous
Mar 27
Full
Apr 3
Last Quarter
Apr 10
New
Apr 18
First Quarter

Hourly Weather History & Observations

Time (EDT) Temp. Windchill Dew Point Humidity Pressure Visibility Wind Dir Wind Speed Gust Speed Precip Events Conditions
12:17 AM 26.6 °F - 23.0 °F 86% 30.01 in 10.0 mi Calm Calm - N/A   Scattered Clouds
12:37 AM 23.0 °F - 21.2 °F 93% 30.01 in 10.0 mi Calm Calm - N/A   Mostly Cloudy
12:56 AM 24.8 °F - 23.0 °F 93% 30.00 in 10.0 mi Calm Calm - N/A   Overcast
1:17 AM 28.4 °F - 23.0 °F 80% 30.00 in 10.0 mi Calm Calm - N/A   Overcast
1:36 AM 28.4 °F - 23.0 °F 80% 30.01 in 10.0 mi Calm Calm - N/A   Overcast
1:57 AM 28.4 °F - 23.0 °F 80% 30.01 in 10.0 mi Calm Calm - N/A   Overcast
2:17 AM 28.4 °F - 23.0 °F 80% 30.01 in 10.0 mi Calm Calm - N/A   Overcast
2:36 AM 28.4 °F - 23.0 °F 80% 30.01 in 10.0 mi Calm Calm - N/A   Overcast
2:57 AM 28.4 °F - 24.8 °F 86% 30.01 in 10.0 mi Calm Calm - N/A   Overcast
3:17 AM 28.4 °F - 24.8 °F 86% 30.01 in 10.0 mi Calm Calm - N/A   Overcast
3:37 AM 28.4 °F - 24.8 °F 86% 30.01 in 10.0 mi Calm Calm - N/A   Overcast
3:57 AM 28.4 °F - 24.8 °F 86% 30.01 in 10.0 mi Calm Calm - N/A   Overcast
4:17 AM 28.4 °F 24.6 °F 24.8 °F 86% 30.01 in 10.0 mi WNW 3.5 mph - N/A   Overcast
4:37 AM 30.2 °F 26.7 °F 24.8 °F 80% 30.01 in 10.0 mi NW 3.5 mph - N/A   Overcast
4:56 AM 30.2 °F 26.7 °F 24.8 °F 80% 30.01 in 10.0 mi NW 3.5 mph - N/A   Overcast
5:17 AM 30.2 °F - 26.6 °F 86% 30.00 in 10.0 mi Calm Calm - N/A   Overcast
5:37 AM 30.2 °F 26.7 °F 26.6 °F 86% 30.00 in 10.0 mi NW 3.5 mph - N/A   Overcast
5:56 AM 30.2 °F - 26.6 °F 86% 30.01 in 10.0 mi Calm Calm - N/A   Overcast
6:17 AM 30.2 °F 23.4 °F 24.8 °F 80% 30.01 in 10.0 mi NW 6.9 mph - N/A   Overcast
6:36 AM 30.2 °F - 24.8 °F 80% 30.01 in 10.0 mi Calm Calm - N/A   Overcast
6:57 AM 30.2 °F - 24.8 °F 80% 30.02 in 10.0 mi Calm Calm - N/A   Overcast
7:17 AM 28.4 °F - 24.8 °F 86% 30.02 in 10.0 mi Calm Calm - N/A   Overcast
7:37 AM 28.4 °F 24.6 °F 24.8 °F 86% 30.03 in 10.0 mi WNW 3.5 mph - N/A   Overcast
7:57 AM 28.4 °F 24.6 °F 24.8 °F 86% 30.03 in 10.0 mi WNW 3.5 mph - N/A   Overcast
8:17 AM 30.2 °F - 24.8 °F 80% 30.04 in 10.0 mi Calm Calm - N/A   Overcast
8:37 AM 30.2 °F 26.7 °F 24.8 °F 80% 30.04 in 10.0 mi WNW 3.5 mph - N/A   Overcast
8:57 AM 30.2 °F 23.4 °F 24.8 °F 80% 30.05 in 10.0 mi NNW 6.9 mph - N/A   Overcast
9:16 AM 30.2 °F 22.6 °F 24.8 °F 80% 30.05 in 10.0 mi NW 8.1 mph - N/A   Overcast
9:37 AM 30.2 °F 25.4 °F 24.8 °F 80% 30.06 in 10.0 mi NW 4.6 mph - N/A   Overcast
9:57 AM 32.0 °F 26.4 °F 24.8 °F 75% 30.06 in 10.0 mi NW 5.8 mph - N/A   Overcast
10:17 AM 32.0 °F 26.4 °F 24.8 °F 75% 30.06 in 10.0 mi NW 5.8 mph - N/A   Overcast
10:37 AM 32.0 °F 27.5 °F 23.0 °F 69% 30.07 in 10.0 mi NW 4.6 mph - N/A   Overcast
10:56 AM 32.0 °F - 23.0 °F 69% 30.08 in 10.0 mi Calm Calm - N/A   Overcast
11:17 AM 32.0 °F 28.7 °F 23.0 °F 69% 30.08 in 10.0 mi NNW 3.5 mph - N/A   Overcast
11:37 AM 32.0 °F 27.5 °F 24.8 °F 75% 30.08 in 10.0 mi NW 4.6 mph - N/A   Overcast
11:57 AM 32.0 °F 27.5 °F 24.8 °F 75% 30.07 in 10.0 mi North 4.6 mph - N/A   Overcast
12:17 PM 32.0 °F 27.5 °F 24.8 °F 75% 30.08 in 10.0 mi West 4.6 mph - N/A   Overcast
12:36 PM 32.0 °F 28.7 °F 24.8 °F 75% 30.09 in 10.0 mi WNW 3.5 mph - N/A   Overcast
12:57 PM 33.8 °F 27.7 °F 24.8 °F 70% 30.09 in 10.0 mi WNW 6.9 mph - N/A   Overcast
1:17 PM 33.8 °F 29.6 °F 24.8 °F 70% 30.08 in 10.0 mi NNW 4.6 mph - N/A   Overcast
1:37 PM 33.8 °F 27.0 °F 24.8 °F 70% 30.08 in 10.0 mi NW 8.1 mph - N/A   Overcast
1:57 PM 33.8 °F 29.6 °F 24.8 °F 70% 30.08 in 10.0 mi NW 4.6 mph - N/A   Overcast
2:16 PM 33.8 °F 28.6 °F 24.8 °F 70% 30.08 in 10.0 mi WNW 5.8 mph - N/A   Overcast
2:37 PM 33.8 °F 28.6 °F 24.8 °F 70% 30.08 in 10.0 mi NW 5.8 mph - N/A   Overcast
2:57 PM 35.6 °F 31.7 °F 24.8 °F 65% 30.08 in 10.0 mi NW 4.6 mph - N/A   Overcast
3:16 PM 35.6 °F 29.2 °F 24.8 °F 65% 30.08 in 10.0 mi NW 8.1 mph - N/A   Overcast
3:37 PM 35.6 °F 30.7 °F 24.8 °F 65% 30.08 in 10.0 mi NNW 5.8 mph - N/A   Overcast
3:57 PM 35.6 °F 29.9 °F 24.8 °F 65% 30.07 in 10.0 mi NW 6.9 mph - N/A   Overcast
4:17 PM 35.6 °F 29.2 °F 26.6 °F 70% 30.06 in 10.0 mi NW 8.1 mph - N/A   Overcast
4:37 PM 35.6 °F - 24.8 °F 65% 30.06 in 10.0 mi Calm Calm - N/A   Overcast
4:56 PM 33.8 °F 29.6 °F 24.8 °F 70% 30.06 in 10.0 mi North 4.6 mph - N/A   Mostly Cloudy
5:17 PM 33.8 °F 28.6 °F 24.8 °F 70% 30.06 in 10.0 mi NW 5.8 mph - N/A   Mostly Cloudy
5:37 PM 35.6 °F 29.2 °F 26.6 °F 70% 30.06 in 10.0 mi WNW 8.1 mph - N/A   Mostly Cloudy
5:57 PM 33.8 °F 29.6 °F 24.8 °F 70% 30.08 in 10.0 mi WNW 4.6 mph - N/A   Overcast
6:17 PM 35.6 °F 29.9 °F 24.8 °F 65% 30.09 in 10.0 mi WNW 6.9 mph - N/A   Overcast
6:36 PM 33.8 °F 29.6 °F 24.8 °F 70% 30.09 in 10.0 mi NNW 4.6 mph - N/A   Overcast
6:57 PM 33.8 °F 30.8 °F 24.8 °F 70% 30.08 in 10.0 mi WNW 3.5 mph - N/A   Overcast
7:17 PM 33.8 °F - 24.8 °F 70% 30.08 in 10.0 mi Calm Calm - N/A   Overcast
7:37 PM 32.0 °F - 24.8 °F 75% 30.07 in 10.0 mi Calm Calm - N/A   Overcast
7:57 PM 32.0 °F - 24.8 °F 75% 30.07 in 10.0 mi Calm Calm - N/A   Scattered Clouds
8:17 PM 30.2 °F - 24.8 °F 80% 30.08 in 10.0 mi Calm Calm - N/A   Clear
8:37 PM 26.6 °F - 24.8 °F 93% 30.08 in 10.0 mi Calm Calm - N/A   Clear
8:57 PM 26.6 °F - 24.8 °F 93% 30.08 in 10.0 mi Calm Calm - N/A   Clear
9:16 PM 26.6 °F - 24.8 °F 93% 30.08 in 10.0 mi Calm Calm - N/A   Clear
9:37 PM 24.8 °F - 24.8 °F 100% 30.08 in 10.0 mi Calm Calm - N/A   Clear
9:57 PM 24.8 °F - 24.8 °F 100% 30.09 in 10.0 mi Calm Calm - N/A   Clear
10:17 PM 24.8 °F - 24.8 °F 100% 30.09 in 10.0 mi Calm Calm - N/A   Clear
10:37 PM 24.8 °F - 23.0 °F 93% 30.08 in 10.0 mi Calm Calm - N/A   Clear
10:57 PM 23.0 °F - 23.0 °F 100% 30.08 in 10.0 mi Calm Calm - N/A   Clear
11:17 PM 23.0 °F - 23.0 °F 100% 30.07 in 10.0 mi Calm Calm - N/A   Clear
11:37 PM 24.8 °F - 23.0 °F 93% 30.07 in 10.0 mi Calm Calm - N/A   Scattered Clouds
11:56 PM 23.0 °F - 23.0 °F 100% 30.06 in 10.0 mi Calm Calm - N/A   Mostly Cloudy